Location: Brno
(49.2000°N, 16.6330°E)
Time: 16:22:48
(UTC+02:00)

Explorer 11/Cluster Stage 4 - Pass Details

Date: 29 July 2021
Orbit: 467 x 1256 km, 28.8° (Epoch: 27 September)

Event Time Altitude Azimuth Distance (km) Brightness Sun altitude
Rises 12:27:26 0° 229° (SW) 4,172 10.5 58.7°
Reaches altitude 10° 12:32:02 10° 207° (SSW) 3,137 10.2 58.9°
Maximum altitude 12:35:51 14° 178° (S) 2,727 10.1 59.1°
Drops below altitude 10° 12:39:28 10° 149° (SSE) 2,930 10.1 59.2°
Sets 12:43:29 0° 126° (SE) 3,725 10.3 59.3°
